User: anonymous   Login
Location: Unspecified
(0.0000°N, 0.0000°E)
Time: 09:17:03
(UTC+00:00)
Language:

IRS-1C - Orbit

View from above orbital plane
View from above orbital plane
View from above satellite
View from above satellite

Ground track
Ground track

The orbit data is extracted from the following two-line orbital elements,

1 23751U 95072A   18018.43967781 -.00000005 +00000-0 +17386-4 0  9999
2 23751 098.7127 323.4003 0001079 095.3348 264.7953 14.22553423144745
Epoch (UTC): 18 January 2018 10:33:08
Eccentricity: 0.0001079
inclination: 98.7127°
perigee height: 816 km
apogee height: 817 km
right ascension of ascending node: 323.4003°
argument of perigee: 95.3348°
revolutions per day: 14.22553423
mean anomaly at epoch: 264.7953°
orbit number at epoch: 14474

The dashed part of the orbit path shows where the satellite is in the earth's shadow,  

DLR